Location: Wells
(51.2093°N, 2.6446°W)
Time: 13:57:59
(UTC+01:00)

STARS - Pass Details

Date: 14 March 2026
Orbit: 575 x 588 km, 98.2° (Epoch: 14 April)

Event Time Altitude Azimuth Distance (km) Brightness Sun altitude
Rises 03:44:51 0° 2° (N) 2,804 ? -25.2°
Reaches altitude 10° 03:47:34 10° 343° (NNW) 1,899 ? -24.9°
Enters shadow 03:48:23 13° 333° (NNW) 1,696 ? -24.8°
